Regional Weather Roundup
Issued by NWS

Home | Current Version | Previous Version | Graphics & Text | Print | Product List | Glossary On
Versions: 1 2 3 4 5 6 7 8 9 10 11 12 13 14 15 16 17 18 19 20 21 22 23 24 25 26 27 28 29 30 31 32 33 34 35 36 37 38 39 40 41 42 43 44 45 46 47 48 49 50
000
ASUS43 KMKX 011359
RWRWI

WISCONSIN REGIONAL WEATHER ROUNDUP
NATIONAL WEATHER SERVICE MILWAUKEE/SULLIVAN WI
800 AM CST SUN FEB 01 2015

NOTE: "FAIR" INDICATES FEW OR NO CLOUDS BELOW 12,000 FEET WITH NO
SIGNIFICANT WEATHER AND/OR OBSTRUCTIONS TO VISIBILITY.

WIZ001-002-006>008-014>016-023>028-011500-
NORTHWEST WISCONSIN

CITY           SKY/WX    TMP DP  RH WIND       PRES   REMARKS
SUPERIOR ARPT    N/A      9   6  87 NE13G22   30.37R WCI  -7
ASHLAND        LGT SNOW   9   5  84 N20       30.35S FOG     WCI -10
HAYWARD        CLOUDY     7  -3  64 NE9       30.27S WCI  -7
SIREN          MOCLDY    10   0  63 E12       30.29R WCI  -5
CUMBERLAND     CLOUDY     9   0  66 NE14      30.23R WCI  -8
RICE LAKE      CLOUDY     9   1  69 NE13      30.25R WCI  -7
CHETEK         CLOUDY     8   1  70 MISG      30.24R
LADYSMITH      CLOUDY     8   1  72 NE10G16   30.24S WCI  -6
EAU CLAIRE     LGT SNOW  11   3  70 NE14      30.22R WCI  -5
MENOMONIE      CLOUDY    12   5  72 NE13G20   30.23R HAZE    WCI  -3
NEW RICHMOND   CLOUDY    11   2  67 NE15      30.23R WCI  -6
OSCEOLA        CLOUDY    12   1  62 NE18G25   30.28R WCI  -5
$$

WIZ003>005-009-010-017-018-011500-
NORTH CENTRAL WISCONSIN

CITY           SKY/WX    TMP DP  RH WIND       PRES   REMARKS
MANITOWISH WTR CLOUDY     3  -2  77 NE7       30.23S WCI  -9
ARBOR VITAE    CLOUDY     5   0  78 NE7       30.22R WCI  -7
WOODRUFF       CLOUDY     5   0  78 NE7       30.22R WCI  -7
RHINELANDER    CLOUDY     6  -1  73 NE9       30.20S WCI  -8
EAGLE RIVER    CLOUDY     4  -2  74 NE10      30.21S WCI -11
LAND O LAKES   CLOUDY     4   0  85 NE7       30.23S WCI  -9
PHILLIPS       MOCLDY     4  -2  75 NE10G17   30.22R WCI -11
TOMAHAWK       CLOUDY     6   0  74 NE6       30.20F WCI  -4
MEDFORD        CLOUDY     8   1  73 NE14      30.16S WCI  -9
MERRILL        CLOUDY     9   2  73 E13       30.19S WCI  -7
$$

WIZ029-030-035-036-043>047-011500-
CENTRAL WISCONSIN

CITY           SKY/WX    TMP DP  RH WIND       PRES   REMARKS
WAUSAU         CLOUDY    10   1  67 NE13G22   30.18R WCI  -5
MOSINEE        CLOUDY    10   3  72 NE13      30.17S WCI  -5
MARSHFIELD     LGT SNOW  11   6  81 NE12      30.16R VSB 3/4 WCI  -3
STEVENS POINT  CLOUDY     9   4  81 NE15      30.17S HAZE    WCI  -8
WAUPACA        LGT SNOW  14   8  78 N10G20    30.18F WCI   1
WAUTOMA        LGT SNOW  12   9  85 NE12      30.16R FOG     WCI  -2
WISC RAPIDS    LGT SNOW  11   5  77 NE10G21   30.18R WCI  -3
CAMP DOUGLAS   LGT SNOW  12  12 100 NE9       30.15R FOG     WCI   0
$$

WIZ011>013-019>022-031-037>040-048>050-011500-
NORTHEAST WISCONSIN

CITY           SKY/WX    TMP DP  RH WIND       PRES   REMARKS
ANTIGO         CLOUDY     7   2  78 NE16      30.18S WCI -11
SHAWANO        CLOUDY    14   4  66 NE17G25   30.23S WCI  -3
OCONTO         CLOUDY    11   4  75 NE9G18    30.26S WCI  -2
STURGEON BAY   CLOUDY    10   3  72 N12       30.25S WCI  -4
GREEN BAY      MIX PCPN  12   5  73 NE31G38   30.21F WCI -10
MANITOWOC      LGT SNOW  19  18  93 NE13G22   30.18S FOG     WCI   7
APPLETON       LGT SNOW  12   9  85 NE15G25   30.17  WCI  -4
CLINTONVILLE   CLOUDY    12   5  73 NE15G25   30.21S WCI  -4
OSHKOSH        LGT SNOW  13   9  84 NE21G29   30.14S FOG     WCI  -5
$$

WIZ032>034-041-042-053>061-011500-
SOUTHWEST WISCONSIN

CITY           SKY/WX    TMP DP  RH WIND       PRES   REMARKS
LA CROSSE      LGT SNOW  16  10  77 NE10      30.14S VSB 1   WCI   4
SPARTA         LGT SNOW  13   9  83 NE12      30.15R WCI   0
VIROQUA        CLOUDY    13  10  88 NE16G23   30.06R WCI  -3
BOSCOBEL       HVY SNOW  17  12  80 NE9G17    30.07R VSB 1/4 WCI   6
PRAIRIE DU CHI LGT SNOW  18  13  80 NE13G18   30.04S WCI   5
PLATTEVILLE    CLOUDY    19  16  89 NE24      29.96R VSB 3/4 WCI   1
$$

WIZ056-057-062-063-064-067-068-011500-
SOUTH CENTRAL WISCONSIN

CITY           SKY/WX    TMP DP  RH WIND       PRES   REMARKS
REEDSBURG      LGT SNOW  13   9  85 NE14G22   30.10R WCI  -2
BARABOO/DELLS  LGT SNOW  13   9  85 NE15      30.09R WCI  -3
LONE ROCK      LGT SNOW  16  11  80 NE13      30.08R VSB 3/4 WCI   2
MINERAL POINT  LGT SNOW  19  16  86 NE22G29   29.98R WCI   3
MADISON        SNOW      15  11  83 NE17      30.06R VSB 1/2 WCI  -1
MIDDLETON      CLOUDY    17  13  84 NE17G24   30.05S VSB 1   WCI   1
WATERTOWN      LGT SNOW  20  19  93 NE15      30.04F WCI   6
MONROE         LGT SNOW  21  21 100 NE17      29.97R WCI   7
JANESVILLE     CLOUDY    27  23  86 NE21G31   29.99S VSB 3/4 WCI  13
$$

WIZ051-052-058>065-066-070>072-011500-
SOUTHEAST WISCONSIN

CITY           SKY/WX    TMP DP  RH WIND       PRES   REMARKS
MILWAUKEE      SNOW      24  20  84 NE26G32   30.06F VSB 1/4 WCI   8
WAUKESHA       LGT SNOW  21  19  93 NE12G23   30.05F VSB 1   WCI   9
MILWAUKEE/TIMM LGT SNOW  21  19  93 NE17G28   30.07F VSB 3/4 WCI   7
RACINE         SNOW      25  21  85 NE23G33   30.05F VSB 1/4 WCI  10
BURLINGTON     LGT SNOW  23  21  92 NE17G29   30.01F WCI   9
KENOSHA        SNOW      25  23  92 NE26G37   30.01F VSB 1/4 WCI   9
FOND DU LAC    LGT SNOW  15  11  83 NE17      30.13S VSB 1   WCI  -1
SHEBOYGAN      SNOW      20  16  84 NE20G28   30.13S VSB 1/2 WCI   4
WEST BEND      LGT SNOW  21  18  86 NE17G23   30.09S WCI   7
JUNEAU         LGT SNOW  15  12  87 N15G22    30.08F WCI   0
$$

LSZ147-162-011500-
LAKE SUPERIOR

STATION/POSITION TIME  TEMP    WIND        PRES    WAVE
                       AIR SEA DIR/SP/G            HT/PER
                 (UTC) (F)     (DEG/KT/KT) (MB)    (FT/S)
DEVILS ISLAND    1300    9      50/ 18/ 21 1031.0R
PORT WING        1300   13      50/ 16/ 21 1028.4R
SAXON HARBOR     1300   10      CALM  /  5 1027.8S
$$

LMZ867-665-643>646-011500-
LAKE MICHIGAN

STATION/POSITION TIME  TEMP    WIND        PRES    WAVE
                       AIR SEA DIR/SP/G            HT/PER
                 (UTC) (F)     (DEG/KT/KT) (MB)    (FT/S)
NORTHPORT PIER   1329   10      10/ 16/ 23 1025.7F
SISTER BAY       1243   10      10/ 13/ 20   N/A
KEWAUNEE LAKESHO 1300   21      50/ 23/ 29 1022.1F
SHEBOYGAN LAKESH 1300   22      60/ 30/ 32 1021.7F
PORT WASHINGTON  1300   24      60/ 22     1020.3
MILWAUKEE LAKESH 1300   25      60/ 26/ 31   N/A
KENOSHA   LAKESH 1300   27      60/ 25/ 32 1016.9F
$$

TC  - TEMPERATURE IN CELSIUS
VSB - VISIBILITY IN STATUTE MILES
WCI - WIND CHILL INDEX
HX  - HEAT INDEX




USA.gov is the U.S. government's official web portal to all federal, state and local government web resources and services.